This demonstration page uses our WeatherBlox Daily Observations layout. Learn more.

Left ArrowRight Arrow

36.17497, -115.13722

Hourly Observations for October 6, 2016

Temp ( °F °C ) Dew Point ( °F °C ) Humidity (%) Winds ( mph kmh ) Pressure ( in mb ) Visibility ( mi km ) Precip ( " mm )
12:53 am 00:53 Clear 66 18.9 9 -12.8 10 10 N 14 22 29.91 1013 10 16.0934 0 0
1:53 am 01:53 Clear 64 17.8 11 -11.7 12 12 N 15 24 29.93 1013 10 16.0934 0 0
2:53 am 02:53 Clear 63 17.2 11 -11.7 13 13 NNW 12 19 29.94 1014 10 16.0934 0 0
3:53 am 03:53 Clear 62 16.7 13 -10.6 14 14 N 12 19 29.96 1015 10 16.0934 0 0
4:53 am 04:53 Clear 65 18.3 15 -9.4 14 14 N 10 17 29.98 1015 10 16.0934 0 0
5:53 am 05:53 Clear 61 16.1 16 -8.9 17 17 NNE 9 15 30 1016 10 16.0934 0 0
6:53 am 06:53 Sunny 62 16.7 17 -8.3 17 17 N 13 20 30.02 1017 10 16.0934 0 0
7:53 am 07:53 Sunny 63 17.2 18 -7.8 17 17 N 13 20 30.05 1018 10 16.0934 0 0
8:53 am 08:53 Sunny 67 19.4 19 -7.2 16 16 N 16 26 30.08 1019 10 16.0934 0 0
9:53 am 09:53 Sunny 70 21.1 19 -7.2 14 14 N 13 20 30.09 1019 10 16.0934 0 0
10:53 am 10:53 Sunny 70 21.1 20 -6.7 15 15 NNW 3 6 30.1 1019 10 16.0934 0 0
11:53 am 11:53 Sunny 74 23.3 20 -6.7 13 13 N 7 11 30.09 1019 10 16.0934 0 0
12:53 pm 12:53 Sunny 74 23.3 19 -7.2 12 12 NNE 3 6 30.07 1018 10 16.0934 0 0
1:53 pm 13:53 Sunny 76 24.4 18 -7.8 11 11 E 3 6 30.04 1017 10 16.0934 0 0
2:53 pm 14:53 Sunny 78 25.6 15 -9.4 9 9 ENE 8 13 30.01 1016 10 16.0934 0 0
3:53 pm 15:53 Sunny 78 25.6 14 -10 9 9 VRB 5 7 30.01 1016 10 16.0934 0 0
4:53 pm 16:53 Sunny 78 25.6 14 -10 9 9 NNW 10 17 29.99 1016 10 16.0934 0 0
5:53 pm 17:53 Sunny 76 24.4 16 -8.9 10 10 E 6 9 30.01 1016 10 16.0934 0 0
6:53 pm 18:53 Clear 72 22.2 18 -7.8 13 13 ESE 5 7 30.02 1017 10 16.0934 0 0
7:53 pm 19:53 Clear 71 21.7 16 -8.9 12 12 E 5 7 30.03 1017 10 16.0934 0 0
8:53 pm 20:53 Clear 69 20.6 17 -8.3 14 14 NNW 3 6 30.04 1017 10 16.0934 0 0
9:53 pm 21:53 Clear 65 18.3 19 -7.2 17 17 NW 9 15 30.04 1017 10 16.0934 0 0
10:53 pm 22:53 Clear 63 17.2 20 -6.7 19 19 NNW 6 9 30.05 1018 10 16.0934 0 0
11:53 pm 23:53 Clear 64 17.8 15 -9.4 15 15 NNW 8 13 30.05 1018 10 16.0934 0 0

Powered by AerisWeather